Regional Weather Roundup
Issued by NWS Jackson, KY

Home | Current Version | Previous Version | Text Only | Print | Product List | Glossary On
Versions: 1 2 3 4 5 6 7 8 9 10 11 12 13 14 15 16 17 18 19 20 21 22 23 24 25 26 27 28 29 30 31 32 33 34 35 36 37 38 39 40 41 42 43 44 45 46 47 48 49 50
000
ASUS43 KJKL 271319
RWRJKL

EAST KENTUCKY HOURLY WEATHER ROUNDUP
NATIONAL WEATHER SERVICE JACKSON KY
900 AM EDT WED AUG 27 2014

NOTE: "FAIR" INDICATES FEW OR NO CLOUDS BELOW 12,000 FEET WITH
NO SIGNIFICANT WEATHER AND/OR OBSTRUCTIONS TO VISIBILITY.

* THESE REPORTS ARE NOT UNDER NWS QUALITY CONTROL AND MAY NOT
  REPORT WEATHER SUCH AS PRECIPITATION AND FOG.

KYZ079-080-083-085-087-088-110-112-115-119-120-271400
...EASTERN KENTUCKY...

CITY           SKY/WX    TMP DP  RH WIND       PRES   REMARKS
JACKSON        SUNNY     68  63  84 CALM      30.15R
LONDON         SUNNY     69  64  84 CALM      30.15R
SOMERSET*      SUNNY     68  64  88 CALM      30.15S
MONTICELLO*    SUNNY     69  66  90 CALM      30.15R
WILLIAMSBURG*  CLOUDY    63  63 100 CALM      30.15R
MIDDLESBORO*   CLOUDY    63  63  99 CALM      30.17R FOG
HARLAN APT*    CLOUDY    63  61  94 MISG      30.17S
BLACK MTN*       N/A     66  61  82 VRB6        N/A
PIKEVILLE APT* FOG       61  61 100 CALM      30.16R VSB 0
BIG SANDY*     SUNNY     66  63  89 S3        30.16R
MOREHEAD APT*  PTSUNNY   72  66  83 CALM      30.16R
ASHLAND*       SUNNY     70  64  83 CALM      30.11S
$$

KYZ035-036-041-042-044-050-067-078-099-271400
...CENTRAL KENTUCKY...

CITY           SKY/WX    TMP DP  RH WIND       PRES   REMARKS
MT STERLING*   SUNNY     72  64  78 CALM      30.15R
FLEMING/MASON* SUNNY     72  66  83 CALM      30.13F
DANVILLE*      SUNNY     70  64  83 CALM      30.15R
RICHMOND*      SUNNY     70  64  83 CALM      30.13S
LEXINGTON      SUNNY     74  67  78 S3        30.14R
FRANKFORT      SUNNY     74  68  81 CALM      30.11R
$$

KYZ091>093-OHZ055-061-077-WVZ005-015-034-035-042-271400
...SOUTHERN OHIO/WEST VIRGINIA...

CITY           SKY/WX    TMP DP  RH WIND       PRES   REMARKS
COVINGTON      MOSUNNY   76  71  85 CALM      30.11S
COLUMBUS       MOSUNNY   76  67  73 W3        30.10R
DAYTON         PTSUNNY   75  70  84 CALM      30.12S
WILMINGTON     SUNNY     75  68  78 W5        30.11S
HUNTINGTON     SUNNY     66  64  93 CALM      30.13R
CHARLESTON     MOSUNNY   63  62  97 CALM      30.14S
PINEVILLE*     SUNNY     60  60 100 MISG      30.23S
BECKLEY        SUNNY     66  58  75 CALM      30.20R
BLUEFIELD      SUNNY     65  57  75 CALM      30.22S
$$

VAZ002-007-008-TNZ017-027-036-066-071-271400
...SOUTHWEST VIRGINIA/EAST TENNESSEE...

CITY           SKY/WX    TMP DP  RH WIND       PRES   REMARKS
WISE*          SUNNY     70  59  68 CALM      30.21S
JONESVILLE*      N/A     64  61  88 CALM      30.18S
BRISTOL        MOSUNNY   63  56  78 E3        30.18R
KNOXVILLE      MOSUNNY   68  65  90 CALM      30.14R
OAK RIDGE      CLOUDY    67  66  97 E3        30.16R FOG
CROSSVILLE     MOSUNNY   71  65  81 CALM      30.17S
NASHVILLE      MOSUNNY   75  70  84 CALM      30.11S
$$

...KEY TO REMARKS...
VSB - VISIBILITY IN MILES
WCI - WIND CHILL INDEX
HX  - HEAT INDEX

$$


USA.gov is the U.S. government's official web portal to all federal, state and local government web resources and services.